Weather History for Greenville, ME

Change the Weather History Date:

Friday, January 4, 2013

  Actual Average (KMLT) Record (KMLT)
Temperature  
Mean Temperature 14 °F 16 °F  
Max Temperature 28 °F 25 °F 52 °F (1950)
Min Temperature 1 °F 6 °F -28 °F (1934)
Degree Days  
Heating Degree Days 50 49  
Month to date heating degree days 196  
Since 1 July heating degree days 3361  
Cooling Degree Days 0 0  
Month to date cooling degree days 0  
Year to date cooling degree days 0  
Moisture  
Dew Point 12 °F    
Average Humidity 77    
Maximum Humidity 84    
Minimum Humidity 72    
Precipitation  
Precipitation 0.00 in 0.12 in 0.89 in (1960)
Month to date precipitation 0.52  
Year to date precipitation 0.52  
Sea Level Pressure  
Sea Level Pressure 29.69 in    
Wind  
Wind Speed 2 mph (SSW)    
Max Wind Speed 8 mph    
Max Gust Speed -    
T = Trace of Precipitation, MM = Missing Value Source: NWS Daily Summary

Daily Weather History Graph

Daily Weather History Graph

Search for Another Location

Airport:

Trip Planner

Search our weather history database for the weather conditions in past years. The results will help you decide how hot, cold, wet, or windy it might be!

Date:

Astronomy

Jan. 04, 2013 Rise Set
Actual Time 7:18 AM EST 4:09 PM EST
Civil Twilight 6:44 AM EST 4:42 PM EST
Nautical Twilight 6:07 AM EST 5:20 PM EST
Astronomical Twilight 5:31 AM EST 5:55 PM EST
Moon No Moon Rise 10:36 AM EST (1/4)
Length of Visible Light 9h 58m
Length of Day
8h 50m
Waning Gibbous, 55% of the Moon is Illuminated
Jan 4
Waning Gibbous
Jan 4
Last Quarter
Jan 11
New
Jan 18
First Quarter
Jan 26
Full

Hourly Weather History & Observations

Time (EST) Temp. Windchill Dew Point Humidity Pressure Visibility Wind Dir Wind Speed Gust Speed Precip Events Conditions
12:56 AM 1.9 °F - -4.0 °F 76% 29.84 in - Calm Calm - N/A   Unknown
1:56 AM 1.9 °F - -5.1 °F 72% 29.82 in - Calm Calm - N/A   Unknown
2:56 AM 1.9 °F -5.6 °F -4.0 °F 76% 29.80 in - East 3.5 mph - N/A   Unknown
3:56 AM 5.0 °F - -0.9 °F 76% 29.79 in - Calm Calm - N/A   Unknown
4:56 AM 5.0 °F - -0.9 °F 76% 29.78 in - Calm Calm - N/A   Unknown
5:56 AM 10.0 °F - 5.0 °F 80% 29.78 in - Calm Calm - N/A   Unknown
6:56 AM 12.0 °F - 8.1 °F 84% 29.77 in - Calm Calm - N/A   Unknown
7:56 AM 14.0 °F - 10.0 °F 84% 29.75 in - Calm Calm - N/A   Unknown
8:56 AM 14.0 °F - 10.0 °F 84% 29.75 in - Calm Calm - N/A   Unknown
9:56 AM 18.0 °F 8.7 °F 12.0 °F 78% 29.73 in - Variable 6.9 mph - N/A   Unknown
10:56 AM 19.0 °F 10.0 °F 14.0 °F 81% 29.70 in - South 6.9 mph - N/A   Unknown
11:56 AM 21.9 °F 12.5 °F 15.1 °F 75% 29.64 in - South 8.1 mph - N/A   Unknown
12:56 PM 24.1 °F 19.7 °F 17.1 °F 75% 29.61 in - SSW 3.5 mph - N/A   Unknown
1:56 PM 25.0 °F 17.1 °F 18.0 °F 75% 29.60 in - Variable 6.9 mph - N/A   Unknown
2:56 PM 27.0 °F 23.0 °F 19.9 °F 75% 29.60 in - Variable 3.5 mph - N/A   Unknown
3:56 PM 26.1 °F 21.9 °F 21.0 °F 81% 29.60 in - Variable 3.5 mph - N/A   Unknown
4:56 PM 26.1 °F - 19.9 °F 78% 29.61 in - Calm Calm - N/A   Unknown
5:56 PM 28.0 °F 20.0 °F 19.9 °F 72% 29.61 in - West 8.1 mph - N/A   Unknown
6:56 PM 28.0 °F 24.2 °F 19.9 °F 72% 29.62 in - Variable 3.5 mph - N/A   Unknown
7:56 PM 27.0 °F 20.5 °F 19.9 °F 75% 29.63 in - Variable 5.8 mph - N/A   Unknown
8:56 PM 27.0 °F 21.6 °F 19.9 °F 75% 29.63 in - Variable 4.6 mph - N/A   Unknown
9:56 PM 27.0 °F 21.6 °F 19.0 °F 72% 29.62 in - Variable 4.6 mph - N/A   Unknown
10:56 PM 27.0 °F - 19.9 °F 75% 29.62 in - Calm Calm - N/A   Unknown
11:56 PM 26.1 °F - 21.9 °F 84% 29.61 in - Calm Calm - N/A   Unknown